Location: *
(43.0167°S, 179.9000°E)
Time: 20:07:45
(UTC+00:00)

CZ-2D R/B - Pass Details

Date: 12 August 2024
Orbit: 470 x 483 km, 97.4° (Epoch: 19 September)

Event Time Altitude Azimuth Distance (km) Brightness Sun altitude
Rises 17:27:45 0° 353° (N) 2,539 6.7 -16.7°
Reaches altitude 10° 17:29:56 10° 343° (NNW) 1,665 5.6 -16.3°
Maximum altitude 17:33:12 33° 277° (W) 847 3.7 -15.8°
Enters shadow 17:33:17 32° 274° (W) 848 3.7 -15.7°
